This is the latest recevied weather packets stored in our database for station/object WC4PEM. If no packets are shown the sender has not sent any weather packets the latest 1 day(s).
| Time | Temp. | Humidity | Pressure | Rain* | Wind** | Luminosity | Snow |
|---|---|---|---|---|---|---|---|
| 1777969468 | 20° C | 88% | 1013.4 hPa | 0 mm | 1.79 m/s, 63° | - | - |
| 1777969168 | 20° C | 88% | 1013.3 hPa | 0 mm | 2.24 m/s, 64° | - | - |
| 1777968868 | 20° C | 88% | 1013.3 hPa | 0 mm | 1.79 m/s, 85° | - | - |
| 1777968697 | 20° C | 88% | 1013.3 hPa | 0 mm | 1.79 m/s, 63° | - | - |
| 1777968568 | 20° C | 88% | 1013.3 hPa | 0 mm | 1.79 m/s, 63° | - | - |
| 1777968268 | 20° C | 87% | 1013.4 hPa | 0 mm | 1.79 m/s, 57° | - | - |
| 1777968217 | 20° C | 87% | 1013.4 hPa | 0 mm | 1.79 m/s, 71° | - | - |
| 1777967968 | 20° C | 87% | 1013.4 hPa | 0 mm | 1.79 m/s, 71° | - | - |
| 1777967915 | 20° C | 87% | 1013.6 hPa | 0 mm | 1.79 m/s, 70° | - | - |
| 1777967668 | 20° C | 87% | 1013.6 hPa | 0 mm | 1.79 m/s, 70° | - | - |
| 1777967394 | 20° C | 86% | 1013.6 hPa | 0 mm | 1.34 m/s, 59° | - | - |
| 1777967368 | 20° C | 86% | 1013.7 hPa | 0 mm | 1.34 m/s, 63° | - | - |
| 1777967068 | 20° C | 86% | 1013.6 hPa | 0 mm | 1.34 m/s, 59° | - | - |
| 1777966768 | 20° C | 86% | 1013.5 hPa | 0 mm | 1.34 m/s, 76° | - | - |
| 1777966468 | 20° C | 86% | 1013.7 hPa | 0 mm | 1.34 m/s, 78° | - | - |
| 1777966168 | 20° C | 86% | 1013.8 hPa | 0 mm | 1.79 m/s, 81° | - | - |
| 1777965868 | 20° C | 85% | 1013.8 hPa | 0 mm | 1.79 m/s, 93° | - | - |
| 1777965781 | 20° C | 85% | 1013.7 hPa | 0 mm | 1.79 m/s, 78° | - | - |
| 1777965568 | 20° C | 85% | 1013.7 hPa | 0 mm | 1.79 m/s, 78° | - | - |
| 1777965394 | 20° C | 85% | 1013.7 hPa | 0 mm | 1.79 m/s, 98° | - | - |
| 1777965268 | 20° C | 85% | 1013.7 hPa | 0 mm | 1.79 m/s, 98° | - | - |
| 1777964968 | 20° C | 84% | 1013.7 hPa | 0 mm | 2.24 m/s, 65° | - | - |
| 1777964942 | 20.56° C | 84% | 1013.7 hPa | 0 mm | 2.68 m/s, 87° | - | - |
| 1777964668 | 20.56° C | 84% | 1013.7 hPa | 0 mm | 2.68 m/s, 87° | - | - |
| 1777964618 | 20.56° C | 84% | 1013.8 hPa | 0 mm | 2.68 m/s, 88° | - | - |
* Rain latest hour (hover to see other rain measurements)
** Current wind speed in m/s (hover to see current wind gust speed)